Temp
9 8 9 9 9 10 10 9 9 10 10 10 11 11 11 11 11 11 11 11 11 10 10 10 10 10 10 10 10 10 10 10 10 9 9 9 9 9 9 9 9 9
9 10 10 10 10 10 10 9 9 10 10 10 10 11 11 10 10 10 10 10 10 10 9 9 9 9 9 9 9 9 9 9 9 9 9 9 9 9 9 9 9 9
9 10 10 10 10 9 9 8 9 9 10 10 10 10 10 10 10 10 10 9 9 9 9 9 9 9 9 9 9 8 8 9 9 9 9 9 9 9 9 9 9 9
9 9 9 9 9 8 8 8 9 9 9 9 9 9 9 9 9 9 9 8 8 8 8 8 8 8 8 9 9 8 8 8 8 9 9 8 8 8 8 8 9 8
7 7 8 8 8 8 8 8 9 9 9 9 9 9 9 8 8 8 8 8 8 8 8 8 8 8 8 9 9 8 8 8 8 8 8 8 7 8 7 7 7 7
6 6 7 8 8 8 9 9 8 8 8 8 8 8 8 8 8 8 8 7 8 8 8 8 8 8 8 8 8 8 8 8 8 8 8 7 7 6 6 6 6 6
6 7 7 7 8 8 8 8 8 8 8 8 8 8 8 8 8 8 7 7 7 7 7 7 7 7 7 7 7 7 7 7 7 7 7 7 7 6 5 6 5 5
7 7 6 6 7 7 7 8 8 7 7 7 7 7 7 7 7 7 7 7 7 7 7 7 6 7 7 7 7 7 7 7 7 7 7 7 6 5 5 5 5 4
5 6 6 6 6 6 6 7 7 7 7 7 7 7 7 7 7 7 7 7 7 7 6 6 6 6 6 6 6 6 6 6 6 6 6 6 5 4 3 3 4 4
4 4 5 6 5 6 6 6 6 6 6 6 7 7 7 7 6 6 6 6 6 6 6 6 6 6 6 6 6 6 6 6 6 5 5 4 3 2 2 3 3 3
4 4 5 5 5 6 6 6 6 6 6 6 6 6 6 6 6 6 6 6 6 5 5 5 6 5 5 5 5 5 6 6 5 5 4 2 2 2 2 2 2 2
3 4 4 5 5 6 6 6 6 6 6 6 6 6 6 6 6 6 6 5 5 5 5 5 5 5 5 5 5 5 5 5 5 5 3 2 1 1 1 2 2 2
4 5 5 5 5 6 6 6 6 6 6 6 6 6 6 6 6 6 6 5 5 5 5 5 5 5 5 5 5 5 5 5 5 4 3 2 1 1 1 1 1 1
5 5 5 5 5 5 5 6 6 6 6 6 6 6 6 6 6 6 5 5 4 4 4 4 4 4 4 4 4 4 5 5 4 3 2 1 1 1 1 1 1 1
5 5 5 5 5 5 5 5 5 5 5 6 6 6 6 6 5 5 5 4 4 3 3 3 3 3 4 4 4 4 4 4 3 2 2 1 1 1 1 0 0 0
5 5 5 5 5 5 5 5 5 5 5 5 5 5 5 5 5 5 4 4 3 3 3 3 3 3 3 3 4 4 4 4 3 2 1 1 0 0 0 -0 -0 -0
4 4 4 5 5 5 5 5 5 5 5 5 5 5 5 5 5 5 4 4 3 2 3 3 3 3 3 3 4 4 4 5 3 2 1 0 0 0 -0 -0 -0 -1
4 4 4 4 4 4 4 4 5 5 5 5 5 5 5 5 4 4 3 3 2 2 2 2 2 3 3 3 4 3 4 4 3 1 1 -0 -0 -0 -1 -1 -1 -1
4 4 4 4 4 4 4 4 5 5 5 4 4 4 4 4 4 4 3 3 2 2 2 2 2 3 3 3 3 3 4 4 2 0 0 -0 -1 -1 -1 -1 -1 -1
4 4 4 4 4 4 4 4 5 5 4 4 4 4 4 4 3 3 3 3 2 1 1 2 2 2 3 3 3 3 4 4 1 -0 -0 -1 -1 -1 -1 -1 -1 -1
3 4 4 4 4 4 4 4 4 4 4 4 4 4 4 3 3 3 3 3 3 2 1 1 2 2 3 3 3 3 4 3 1 -0 -1 -1 -1 -1 -1 -1 -1 -2
3 3 3 4 4 4 4 4 4 4 4 3 4 4 3 3 3 3 2 2 3 2 1 1 2 2 2 3 3 3 3 2 1 -0 -1 -1 -1 -0 -1 -1 -2 -2
3 3 4 4 4 4 3 3 3 4 3 3 3 3 3 3 3 2 2 2 3 3 1 0 1 2 2 2 3 3 3 2 0 -0 -1 -1 -1 -1 -1 -1 -2 -2
3 3 4 4 4 3 3 3 3 3 3 3 3 3 3 3 2 2 2 2 2 3 2 -0 0 1 2 2 2 2 2 2 1 -0 -1 -1 -0 -0 -0 -1 -1 -2
3 3 3 3 4 3 3 3 3 3 3 3 2 2 3 3 2 2 2 2 2 3 2 1 0 1 2 2 2 2 2 1 1 -0 -1 -1 -0 -0 -0 -1 -1 -1
3 3 3 3 3 3 3 3 3 3 3 2 2 2 3 3 3 2 2 2 2 2 2 1 1 1 1 1 1 2 2 1 1 0 -1 -1 -0 -0 -1 -1 -1 -1
Height
1550 1551 1551 1551 1552 1552 1553 1553 1553 1552 1552 1551 1550 1550 1549 1549 1548 1547 1547 1546 1545 1545 1544 1543 1543 1542 1541 1540 1540 1539 1538 1537 1536 1536 1535 1534 1533 1532 1531 1529 1529 1528
1550 1550 1550 1551 1551 1551 1552 1552 1552 1551 1551 1550 1550 1549 1549 1548 1548 1547 1546 1546 1545 1544 1544 1543 1542 1541 1540 1540 1539 1538 1537 1536 1535 1534 1533 1532 1531 1530 1529 1528 1527 1526
1550 1550 1550 1550 1551 1551 1551 1551 1551 1551 1551 1550 1549 1549 1548 1548 1547 1547 1546 1545 1545 1544 1543 1542 1541 1541 1540 1539 1538 1537 1536 1535 1534 1533 1532 1531 1530 1528 1527 1526 1525 1524
1549 1550 1550 1550 1550 1551 1551 1551 1551 1551 1550 1550 1549 1549 1548 1547 1547 1546 1546 1545 1545 1544 1543 1542 1541 1540 1539 1538 1537 1536 1535 1534 1532 1531 1530 1529 1528 1527 1526 1525 1524 1523
1549 1550 1550 1550 1550 1551 1551 1551 1551 1550 1550 1550 1549 1548 1548 1547 1547 1546 1546 1545 1544 1543 1542 1541 1540 1539 1538 1537 1536 1535 1534 1533 1531 1530 1529 1528 1527 1525 1524 1523 1522 1521
1550 1550 1550 1550 1550 1551 1551 1551 1551 1550 1550 1549 1549 1548 1548 1547 1547 1546 1546 1545 1544 1543 1542 1541 1540 1539 1538 1536 1535 1534 1533 1532 1531 1529 1528 1527 1526 1524 1523 1522 1520 1519
1549 1550 1550 1551 1551 1551 1551 1551 1551 1550 1550 1550 1549 1548 1548 1547 1547 1546 1546 1545 1544 1543 1542 1541 1539 1538 1537 1536 1535 1534 1533 1532 1530 1529 1528 1527 1525 1524 1522 1521 1519 1518
1550 1550 1550 1551 1551 1551 1551 1551 1551 1550 1550 1550 1549 1549 1548 1547 1547 1546 1546 1545 1544 1543 1542 1541 1540 1538 1537 1536 1535 1534 1532 1531 1530 1528 1527 1526 1524 1523 1521 1520 1518 1517
1550 1550 1551 1551 1551 1551 1551 1551 1552 1551 1551 1550 1550 1549 1548 1548 1547 1546 1546 1545 1544 1543 1542 1541 1540 1538 1537 1536 1534 1533 1532 1530 1529 1527 1526 1524 1523 1522 1521 1520 1518 1516
1551 1551 1551 1551 1551 1552 1552 1552 1552 1552 1551 1551 1550 1549 1549 1548 1547 1546 1546 1545 1544 1543 1542 1541 1540 1538 1537 1536 1534 1533 1531 1530 1528 1527 1525 1524 1523 1522 1521 1520 1518 1516
1552 1552 1552 1552 1552 1553 1553 1553 1553 1552 1552 1551 1550 1550 1549 1548 1547 1546 1546 1545 1544 1543 1542 1541 1540 1538 1537 1536 1534 1533 1531 1529 1528 1526 1525 1524 1523 1522 1521 1519 1518 1516
1553 1553 1553 1553 1553 1553 1553 1553 1553 1552 1552 1551 1550 1550 1549 1548 1547 1546 1546 1545 1544 1543 1542 1541 1540 1539 1537 1536 1534 1533 1531 1529 1528 1526 1525 1524 1523 1522 1521 1519 1517 1515
1554 1554 1554 1554 1554 1553 1553 1553 1553 1552 1552 1551 1550 1550 1549 1548 1547 1547 1546 1545 1545 1544 1543 1541 1540 1539 1537 1536 1534 1533 1531 1529 1527 1526 1524 1523 1523 1522 1520 1518 1516 1514
1554 1555 1554 1554 1554 1554 1554 1553 1553 1553 1552 1551 1551 1550 1549 1548 1547 1547 1546 1546 1545 1544 1543 1542 1540 1539 1537 1535 1534 1533 1531 1529 1527 1526 1524 1523 1522 1521 1519 1517 1515 1513
1555 1555 1555 1555 1555 1554 1554 1554 1553 1553 1552 1551 1551 1550 1549 1548 1548 1547 1547 1546 1546 1545 1544 1542 1540 1539 1537 1535 1534 1532 1530 1529 1527 1526 1524 1523 1522 1520 1518 1516 1513 1511
1556 1555 1555 1555 1555 1555 1555 1554 1554 1553 1552 1552 1551 1550 1549 1549 1548 1548 1547 1547 1547 1546 1544 1543 1541 1539 1538 1536 1534 1532 1530 1529 1527 1526 1525 1523 1522 1519 1517 1515 1513 1511
1556 1556 1556 1556 1555 1555 1555 1555 1554 1553 1553 1552 1551 1551 1550 1549 1549 1548 1548 1547 1547 1546 1545 1543 1542 1540 1539 1537 1535 1533 1531 1529 1527 1526 1525 1523 1521 1519 1517 1515 1513 1511
1556 1556 1556 1556 1556 1556 1555 1555 1555 1554 1553 1553 1552 1551 1550 1550 1549 1549 1548 1548 1547 1547 1546 1544 1543 1541 1540 1538 1535 1534 1531 1529 1528 1527 1525 1524 1522 1519 1517 1515 1513 1510
1556 1556 1557 1556 1556 1556 1556 1556 1555 1554 1554 1553 1552 1552 1551 1550 1550 1549 1549 1548 1548 1547 1546 1545 1544 1542 1540 1538 1536 1534 1532 1529 1528 1527 1526 1524 1522 1520 1517 1515 1513 1510
1556 1557 1557 1557 1557 1557 1556 1556 1556 1555 1554 1554 1553 1552 1551 1551 1550 1550 1549 1549 1548 1547 1546 1545 1544 1542 1541 1539 1536 1535 1532 1529 1528 1527 1526 1524 1522 1520 1518 1516 1513 1510
1557 1558 1558 1558 1557 1557 1557 1557 1556 1556 1555 1555 1554 1553 1552 1551 1551 1551 1550 1549 1548 1547 1547 1545 1544 1543 1541 1539 1537 1535 1532 1529 1528 1527 1526 1524 1523 1521 1519 1516 1513 1510
1558 1558 1558 1558 1558 1558 1558 1557 1557 1556 1556 1555 1554 1554 1553 1553 1552 1551 1551 1550 1549 1548 1547 1546 1544 1543 1541 1539 1537 1535 1532 1530 1529 1527 1526 1525 1523 1521 1519 1517 1514 1510
1559 1559 1559 1559 1559 1559 1558 1558 1558 1557 1556 1556 1555 1555 1554 1554 1553 1552 1551 1550 1549 1548 1547 1546 1545 1543 1541 1539 1537 1535 1532 1530 1529 1528 1526 1525 1524 1522 1519 1517 1514 1511
1559 1559 1559 1559 1559 1559 1559 1559 1559 1558 1557 1557 1557 1556 1556 1555 1555 1554 1552 1551 1550 1548 1547 1547 1545 1543 1541 1539 1537 1535 1532 1530 1530 1528 1526 1526 1525 1522 1520 1518 1515 1511
1560 1560 1560 1560 1560 1560 1560 1560 1559 1559 1558 1558 1558 1558 1557 1557 1556 1555 1554 1552 1551 1549 1548 1547 1545 1543 1541 1539 1537 1535 1533 1531 1530 1528 1527 1527 1526 1523 1521 1518 1515 1513
1560 1560 1560 1560 1561 1561 1560 1560 1560 1560 1560 1560 1560 1560 1559 1558 1557 1556 1555 1553 1552 1550 1548 1547 1545 1544 1542 1540 1537 1535 1533 1532 1530 1528 1527 1527 1526 1524 1521 1518 1516 1513
Wind_Speed
5 5 4 4 4 4 4 4 5 6 7 7 8 9 9 9 9 9 10 10 11 12 12 13 13 13 13 12 12 12 11 11 10 10 11 12 14 15 16 16 15 16
5 4 4 4 5 6 6 6 7 8 9 9 9 9 9 9 9 9 10 11 11 12 12 12 13 13 13 13 13 13 13 12 12 11 11 12 12 13 13 14 14 15
5 4 4 5 6 7 7 7 8 9 9 9 9 9 9 9 9 9 10 11 11 11 12 12 13 13 13 13 14 14 14 14 14 13 13 13 13 14 14 14 14 14
6 6 6 7 8 8 8 8 8 9 9 9 9 9 9 9 10 10 11 11 11 11 12 12 12 13 13 13 14 14 15 16 16 16 15 14 14 16 15 15 15 15
8 8 8 9 9 9 9 9 9 9 10 10 10 10 10 11 11 11 11 12 12 13 13 13 14 14 14 14 15 15 16 16 17 17 17 16 15 16 16 15 16 15
8 9 9 10 11 10 10 10 10 10 11 11 11 12 12 12 13 13 13 14 14 14 15 15 16 16 16 16 17 17 17 18 18 18 19 17 16 15 15 16 16 15
9 10 10 11 11 11 11 11 11 12 12 13 13 14 14 14 14 14 15 15 15 16 17 17 18 18 18 18 19 19 19 19 19 19 19 19 17 15 15 16 16 15
10 11 11 11 11 12 12 13 13 14 14 14 15 15 15 15 15 15 16 16 16 17 18 18 19 19 19 20 20 21 21 21 21 21 20 20 19 17 15 16 17 15
10 11 12 12 12 13 14 14 15 15 16 16 16 16 16 16 16 16 17 17 18 19 19 20 20 21 21 22 23 23 23 23 23 23 22 20 18 16 15 16 17 16
10 11 12 12 13 14 15 16 16 16 17 16 17 16 16 17 17 17 18 18 19 20 20 21 22 22 23 24 24 25 25 25 24 23 22 20 16 15 16 16 16 17
11 11 12 13 15 16 17 17 17 17 17 17 17 17 17 18 18 18 19 19 20 21 21 22 22 23 24 25 25 26 26 26 25 23 21 18 15 15 16 16 16 17
11 13 14 15 17 17 17 17 17 17 17 17 17 17 18 18 18 19 19 20 20 21 21 22 23 24 25 26 26 27 28 27 26 24 20 16 15 16 16 16 16 16
14 17 18 17 18 18 17 17 17 17 17 17 18 18 18 18 18 18 19 20 20 21 22 23 24 25 25 26 27 28 28 27 26 25 21 16 15 15 16 16 16 15
18 19 18 18 18 18 17 17 17 17 18 18 18 18 18 18 18 19 20 20 21 22 22 23 24 25 26 27 28 27 27 27 26 24 22 18 16 15 16 16 16 16
19 18 18 18 18 18 18 18 18 18 18 18 18 18 18 19 19 19 20 20 21 22 22 23 24 25 27 27 27 27 27 25 22 20 20 19 17 16 16 16 17 16
18 19 19 18 18 18 18 18 18 19 19 19 19 19 19 20 19 19 20 21 21 21 22 23 23 24 24 25 26 26 26 25 21 19 19 19 17 17 16 16 17 16
18 19 18 18 19 19 19 19 19 20 19 19 20 20 20 20 20 20 21 21 21 21 21 22 22 23 22 23 25 25 25 25 23 21 20 19 18 17 16 17 18 18
19 18 18 19 19 19 20 20 20 20 20 20 21 21 21 21 21 21 21 21 20 20 21 21 21 21 21 22 24 23 24 25 23 21 20 18 17 17 16 17 18 19
19 19 19 19 20 20 20 20 20 21 22 22 22 22 21 21 21 21 20 19 19 18 19 20 20 21 21 22 23 22 24 24 20 18 18 17 16 17 17 17 19 21
19 19 19 20 21 21 21 21 22 23 23 23 23 22 22 22 21 21 20 19 18 15 16 19 21 21 21 22 23 23 24 25 20 16 16 16 16 17 17 17 19 21
18 19 19 20 20 21 22 22 23 24 25 24 23 23 23 22 21 20 19 19 18 15 14 17 21 21 21 22 23 23 25 27 24 18 15 16 17 17 18 17 18 20
18 18 19 20 20 22 23 24 24 25 25 25 25 24 24 23 21 20 19 18 18 17 15 16 20 21 21 22 23 24 26 28 26 20 16 17 18 18 19 18 19 20
17 18 19 20 21 22 23 24 25 25 26 26 25 25 24 23 22 21 20 19 19 18 16 16 19 22 22 23 24 26 27 28 26 21 17 18 19 19 20 19 20 23
17 18 19 20 21 22 23 24 24 25 26 25 25 25 24 24 23 22 21 20 20 20 18 15 17 21 23 24 25 26 27 28 27 22 18 19 20 20 20 20 21 24
17 18 19 20 21 22 22 23 23 24 25 24 23 22 23 23 23 22 22 22 20 20 19 18 18 20 23 24 25 26 27 28 29 25 19 18 21 20 20 21 21 23
18 18 19 19 20 21 21 21 21 22 23 23 21 21 21 22 23 23 23 23 21 19 19 20 21 21 22 24 25 26 27 27 29 27 20 17 20 20 20 22 22 22
Wind_Direction
88 87 84 73 66 62 56 57 61 65 67 63 58 53 47 40 34 28 26 24 21 19 17 17 14 12 12 9 5 1 353 348 344 332 320 310 307 306 305 304 297 287
75 72 64 57 59 63 68 74 76 74 72 68 62 56 50 45 41 35 31 29 27 25 21 18 15 12 11 7 4 2 356 352 351 346 341 334 328 326 322 320 315 306
69 67 61 66 72 75 80 82 83 82 77 72 66 59 54 50 46 42 37 35 31 27 21 15 12 8 5 2 360 357 353 349 346 343 341 339 335 332 328 326 324 321
76 79 80 83 86 89 90 89 86 84 80 75 69 62 58 52 47 44 40 37 31 24 19 14 10 6 3 1 359 358 356 353 349 346 345 343 340 337 334 331 329 326
78 81 87 91 94 97 95 91 86 82 79 76 70 64 58 52 49 46 40 36 31 26 23 19 17 15 12 9 8 6 4 2 359 356 354 350 348 346 342 338 336 333
84 86 90 94 97 96 92 90 85 81 78 72 67 62 56 52 48 46 43 38 35 32 30 28 26 23 21 20 19 16 13 10 8 7 4 359 355 352 349 345 342 339
92 94 93 93 94 91 86 84 80 75 71 66 62 58 54 52 49 48 47 44 41 39 36 34 32 28 27 26 25 22 20 17 15 13 11 7 3 359 354 351 348 343
95 96 92 91 91 86 79 74 71 68 67 65 63 61 59 57 54 52 51 48 44 41 38 36 33 30 28 27 25 23 21 19 17 15 13 11 8 2 357 355 352 346
92 92 93 92 88 83 78 75 73 71 71 70 67 65 63 60 56 53 49 46 43 40 38 36 33 31 29 27 25 23 21 19 18 16 12 9 5 359 355 353 350 348
91 92 92 90 86 83 82 81 79 77 74 71 68 65 62 58 54 51 47 44 42 40 37 35 34 32 30 28 26 23 21 20 18 16 14 9 3 356 352 349 347 345
94 93 91 89 89 87 86 83 80 77 74 70 67 63 59 56 52 50 47 44 43 41 38 35 34 32 30 28 26 23 21 20 18 16 14 9 0 354 350 348 346 344
94 95 94 92 91 89 85 82 78 75 71 68 65 61 58 56 52 50 49 47 46 43 39 36 33 32 30 27 25 23 21 20 18 15 13 9 1 354 351 349 347 344
98 99 97 94 91 88 84 80 77 73 70 67 65 62 58 55 53 51 50 50 48 44 39 36 33 31 29 27 25 22 20 20 18 13 10 8 1 355 353 352 349 346
103 100 97 93 88 85 82 78 75 72 70 67 64 62 59 57 55 54 52 51 49 46 41 36 32 29 26 24 23 21 20 22 21 16 11 8 2 357 356 355 353 350
104 98 94 90 85 82 79 76 74 71 69 67 65 63 62 60 59 58 57 56 52 48 43 37 32 28 23 20 19 18 19 22 22 16 12 8 2 360 359 357 356 353
102 96 92 87 84 81 77 74 73 71 70 68 67 66 64 63 63 63 62 60 54 48 43 37 33 29 24 19 18 16 17 22 23 16 13 9 3 1 1 359 358 354
102 97 92 87 83 80 78 76 74 73 72 71 70 68 66 66 65 63 62 59 55 48 43 39 34 29 25 20 20 18 15 21 24 18 14 9 3 2 2 359 358 354
104 98 93 89 86 82 80 79 77 76 74 72 71 68 66 66 64 62 61 58 56 50 44 41 35 30 26 22 22 20 16 21 25 19 13 8 3 3 2 358 357 354
104 99 95 92 89 86 84 82 80 78 75 72 70 68 65 64 61 60 59 57 55 51 44 41 36 31 27 24 24 21 19 24 25 17 12 8 3 3 1 359 358 354
102 99 96 94 92 89 86 83 80 78 75 72 69 67 64 62 59 57 56 55 55 52 43 39 36 31 27 26 26 22 23 27 26 16 12 9 5 4 2 360 358 355
103 102 100 96 93 89 85 82 79 77 75 72 69 67 64 61 58 54 51 50 50 51 44 36 33 30 26 27 27 24 26 30 27 18 14 11 7 5 3 360 358 356
107 106 102 97 93 89 84 80 78 76 74 70 67 66 63 61 58 54 50 46 43 47 46 34 29 29 26 27 27 25 29 32 25 16 15 13 9 6 4 1 358 358
112 109 104 98 93 89 84 81 77 75 73 70 67 65 63 61 58 54 51 46 41 43 45 35 27 27 25 26 28 27 30 32 25 16 16 15 9 6 5 2 357 356
115 110 105 99 94 90 85 81 78 75 72 70 66 64 63 61 58 54 50 47 42 41 44 38 28 26 25 26 27 27 31 32 25 19 18 14 9 6 4 4 0 355
118 112 105 99 94 91 86 81 78 74 72 70 66 63 62 60 58 55 49 46 43 40 42 41 33 27 25 26 26 26 30 31 25 21 20 13 8 6 3 3 4 357
121 114 106 100 94 90 87 82 79 75 72 70 67 63 61 58 56 54 48 45 43 40 40 39 35 30 25 25 26 25 27 29 25 21 20 14 8 7 5 4 3 359